User: anonymous   Login
Location: Gradaro
(45.0833°N, 10.8833°E)
Time: 20:22:46
(UTC+00:00)
Language:

BREEZE M DEB (TANK) - Orbit

View from above orbital plane
View from above orbital plane
View from above satellite
View from above satellite

Ground track
Ground track

The orbit data is extracted from the following two-line orbital elements,

1 33454U 08063B   21060.28364833  .00002835  00000-0  51154-3 0  9999
2 33454  49.4969  43.3936 5432340 151.0105 255.1371  4.91968066216714
Epoch (UTC): 01 March 2021 06:48:27
Eccentricity: 0.5432340
inclination: 49.4969°
perigee height: 292 km
apogee height: 16157 km
right ascension of ascending node: 43.3936°
argument of perigee: 151.0105°
revolutions per day: 4.91968066
mean anomaly at epoch: 255.1371°
orbit number at epoch: 21671

The dashed part of the orbit path shows where the satellite is in the earth's shadow,  

DLR